Regional Weather Roundup
Issued by NWS Goodland, KS

Home | Current Version | Previous Version | Text Only | Print | Product List | Glossary Off
Versions: 1 2 3 4 5 6 7 8 9 10 11 12 13 14 15 16 17 18 19 20 21 22 23 24 25 26 27 28 29 30 31 32 33 34 35 36 37 38 39 40 41 42 43 44 45 46 47 48 49 50

000
ASUS43 KGLD 130259
RWRGLD

GOODLAND FORECAST AREA HOURLY WEATHER ROUNDUP
NATIONAL WEATHER SERVICE GOODLAND KS
900 PM MDT SAT JUL 12 2014

...OFFICIAL OBSERVATIONS...

CITY           SKY/WX    TMP DP  RH WIND       PRES   REMARKS
GOODLAND KS    MOCLDY    75  65  70 NE10      30.17R
HILL CITY KS   CLEAR     76  67  73 N9        30.06R
IMPERIAL NEB   PTCLDY    74  65  73 NE5       30.17R
MCCOOK NEB     PTCLDY    73  66  78 N8        30.11R
AKRON CO       CLOUDY    72  61  68 N5        30.26R
BURLINGTON CO  CLOUDY    75  62  64 NE9       30.20R
LIMON CO       LGT RAIN  64  61  90 NW12      30.31R
$$

...UNOFFICIAL OBSERVATIONS...

CITY           SKY/WX    TMP DP  RH WIND       PRES   REMARKS
COLBY KS       CLEAR     75  70  83 N8        30.14R
GOVE KS          N/A     79  32  18 CALM        N/A
LENORA KS        N/A     75  32  20 MISG        N/A
NORTON KS      PTCLDY    75  64  69 N7        30.08R
WAKEENEY KS      N/A     76  65  68 MISG        N/A
KIT CARSON CO    N/A     77  62  58 N8          N/A
YUMA CO          N/A     73  64  73 CALM        N/A
$$



USA.gov is the U.S. government's official web portal to all federal, state and local government web resources and services.